Location: Oberkirch
(48.5323°N, 8.0787°E)
Time: 16:43:46
(UTC+00:00)

IRS-1D - Pass Details

Date: 08 November 2025
Orbit: 735 x 812 km, 98.8° (Epoch: 09 December)

Event Time Altitude Azimuth Distance (km) Brightness Sun altitude
Rises 04:33:02 0° 15° (NNE) 3,215 6.9 -18.7°
Reaches altitude 10° 04:35:21 10° 16° (NNE) 2,277 6.1 -18.3°
Maximum altitude 04:40:22 87° 104° (ESE) 749 3.4 -17.5°
Drops below altitude 10° 04:45:17 10° 195° (SSW) 2,237 5.8 -16.7°
Sets 04:47:32 0° 196° (SSW) 3,153 6.6 -16.3°
